Location: *
(50.3440°N, 18.6237°E)
Time: 17:40:01
(UTC+00:00)

SL-23 DEB - Pass Details

Date: 30 November 2020
Orbit: 425 x 3628 km, 51.4° (Epoch: 17 January)

Event Time Altitude Azimuth Distance (km) Brightness Sun altitude
Rises 17:20:43 0° 240° (WSW) 2,603 8.4 -23.9°
Reaches altitude 10° 17:22:28 10° 238° (WSW) 1,867 7.4 -24.2°
Maximum altitude 17:26:30 70° 155° (SSE) 816 4.4 -24.8°
Enters shadow 17:26:54 66° 122° (ESE) 858 4.4 -24.9°
